SCP
0 0 0 0 0 0 0 0 0 0 0 0 0 0 0 0 0 0 0 0 0 0
0 0 0 0 0 0 0 0 0 0 0 0 0 0 0 0 0 0 0 0 0 0
0 0 0 0 0 0 0 0 0 0 0 0 0 0 0 0 0 0 0 0 0 0
0 0 0 0 0 0 0 0 0 0 0 0 0 0 0 0 0 0 0 0 0 0
0 0 0 0 0 0 0 0 0 0 0 0 0 0 0 0 0 0 0 0 0 0
0 0 0 0 0 0 0 0 0 0 0 0 0 0 0 0 0 0 0 0 0 0
0 0 0 0 0 0 0 0 0 0 0 0 0 0 0 0 0 0 0 0 0 0
0 0 0 0 0 0 0 0 0 0 0 0 0 0 0 0 0 0 0 0 0 0
0 0 0 0 0 0 0 0 0 0 0 0 0 0 0 0 0 0 0 0 0 0
0 0 0 0 0 0 0 0 0 0 0 0 0 0 0 0 0 0 0 0 0 0
0 0 0 0 0 0 0 0 0 0 0 0 0 0 0 0 0 0 0 0 0 0
0 0 0 0 0 0 0 0 0 0 0 0 0 0 0 0 0 0 0 0 0 0
0 0 0 0 0 0 0 0 0 0 0 0 0 0 0 0 0 0 0 0 0 0
0 0 0 0 0 0 0 0 0 0 0 0 0 0 0 0 0 0 -0 0 0 0
Wind_Speed_500mb
45 49 51 48 41 37 36 36 30 27 27 31 37 43 47 51 53 53 55 56 55 54
47 48 44 40 36 31 29 28 29 31 35 39 42 44 48 51 53 54 54 54 55 55
30 27 26 25 25 26 29 31 32 33 36 39 43 47 51 53 51 51 51 50 50 48
11 9 12 15 16 18 22 26 30 36 41 46 48 49 50 50 50 47 44 43 45 48
2 3 9 13 18 24 29 33 38 40 42 46 49 53 55 50 43 42 44 47 48 51
9 15 20 23 27 33 37 40 44 48 51 53 54 50 40 36 38 41 47 53 59 66
17 20 25 29 33 37 39 41 44 47 50 52 53 47 39 41 47 55 60 63 67 73
24 29 33 36 38 40 43 46 51 56 59 59 56 43 43 49 58 65 67 63 66 70
34 39 43 46 49 50 51 54 57 57 56 53 46 38 45 52 58 50 56 68 70 65
40 45 49 51 50 49 50 50 50 42 38 39 38 39 44 46 48 57 68 65 58 57
45 47 46 45 46 48 48 47 40 34 33 34 36 39 41 44 52 57 53 53 57 65
36 36 37 40 42 46 48 44 33 30 32 33 34 34 40 43 46 47 54 58 61 69
34 35 35 35 41 42 39 34 30 28 29 34 40 40 40 36 35 49 60 61 60 56
33 34 32 33 37 38 34 31 30 35 37 33 36 34 29 26 36 48 56 57 60 63
Wind_Direction_500mb
205 192 191 187 190 196 201 206 211 225 239 252 265 273 278 282 286 291 294 294 295 295
164 168 171 175 182 193 206 220 236 252 265 271 275 281 285 288 290 289 289 293 297 298
161 169 175 185 201 215 228 241 253 265 277 286 291 294 295 297 298 299 300 300 299 296
160 181 213 230 250 266 275 281 285 289 292 294 295 296 297 297 298 296 297 295 289 290
106 299 293 293 294 293 292 291 292 295 297 300 300 299 295 295 292 291 290 290 293 289
297 294 292 291 291 291 293 295 296 296 298 299 301 302 294 291 290 287 285 286 287 288
300 294 292 293 292 291 291 293 294 294 295 299 302 300 292 291 289 287 286 286 288 290
296 295 294 292 290 291 291 291 291 291 290 293 295 296 296 290 289 289 288 285 290 295
292 293 293 294 296 296 295 293 292 292 292 289 285 281 283 285 289 290 291 294 300 301
290 292 294 296 298 298 299 299 299 298 297 291 282 283 284 291 294 293 296 300 303 304
297 298 299 301 303 305 305 306 310 306 307 300 293 293 300 305 303 302 304 305 302 302
312 310 311 313 320 323 320 316 311 309 308 311 313 320 316 312 306 305 305 303 306 313
324 322 321 327 333 327 325 324 321 319 322 318 316 322 321 314 305 300 305 312 319 324
330 330 328 329 328 325 322 322 324 324 323 328 327 326 332 325 302 306 310 315 319 324
Wind_Speed_850mb
45 49 51 48 41 37 36 36 30 27 27 31 37 43 47 51 53 53 55 56 55 54
47 48 44 40 36 31 29 28 29 31 35 39 42 44 48 51 53 54 54 54 55 55
30 27 26 25 25 26 29 31 32 33 36 39 43 47 51 53 51 51 51 50 50 48
11 9 12 15 16 18 22 26 30 36 41 46 48 49 50 50 50 47 44 43 45 48
2 3 9 13 18 24 29 33 38 40 42 46 49 53 55 50 43 42 44 47 48 51
9 15 20 23 27 33 37 40 44 48 51 53 54 50 40 36 38 41 47 53 59 66
17 20 25 29 33 37 39 41 44 47 50 52 53 47 39 41 47 55 60 63 67 73
24 29 33 36 38 40 43 46 51 56 59 59 56 43 43 49 58 65 67 63 66 70
34 39 43 46 49 50 51 54 57 57 56 53 46 38 45 52 58 50 56 68 70 65
40 45 49 51 50 49 50 50 50 42 38 39 38 39 44 46 48 57 68 65 58 57
45 47 46 45 46 48 48 47 40 34 33 34 36 39 41 44 52 57 53 53 57 65
36 36 37 40 42 46 48 44 33 30 32 33 34 34 40 43 46 47 54 58 61 69
34 35 35 35 41 42 39 34 30 28 29 34 40 40 40 36 35 49 60 61 60 56
33 34 32 33 37 38 34 31 30 35 37 33 36 34 29 26 36 48 56 57 60 63
Wind_Direction_850mb
205 192 191 187 190 196 201 206 211 225 239 252 265 273 278 282 286 291 294 294 295 295
164 168 171 175 182 193 206 220 236 252 265 271 275 281 285 288 290 289 289 293 297 298
161 169 175 185 201 215 228 241 253 265 277 286 291 294 295 297 298 299 300 300 299 296
160 181 213 230 250 266 275 281 285 289 292 294 295 296 297 297 298 296 297 295 289 290
106 299 293 293 294 293 292 291 292 295 297 300 300 299 295 295 292 291 290 290 293 289
297 294 292 291 291 291 293 295 296 296 298 299 301 302 294 291 290 287 285 286 287 288
300 294 292 293 292 291 291 293 294 294 295 299 302 300 292 291 289 287 286 286 288 290
296 295 294 292 290 291 291 291 291 291 290 293 295 296 296 290 289 289 288 285 290 295
292 293 293 294 296 296 295 293 292 292 292 289 285 281 283 285 289 290 291 294 300 301
290 292 294 296 298 298 299 299 299 298 297 291 282 283 284 291 294 293 296 300 303 304
297 298 299 301 303 305 305 306 310 306 307 300 293 293 300 305 303 302 304 305 302 302
312 310 311 313 320 323 320 316 311 309 308 311 313 320 316 312 306 305 305 303 306 313
324 322 321 327 333 327 325 324 321 319 322 318 316 322 321 314 305 300 305 312 319 324
330 330 328 329 328 325 322 322 324 324 323 328 327 326 332 325 302 306 310 315 319 324